Wind_Speed
44 45 45 44 45 45 44 44 44 43 43 43 43 44 45 45 46 46 45 45 45 45 45 45 46 48 49 50 50 51 51 52 51 50 48 49 49 49 50 50 49 49 48 46 43 42 41 40 39 38 38 37 36 35 34 34 34 36 37 39 41 41 40 37 34 33 35 37 36 35 33 31 28 27 27 27 25 23 21 23 24 25 24 25 24 24 25 24
44 45 45 45 45 46 46 45 45 45 44 44 44 44 44 45 46 46 46 45 45 44 44 44 45 46 47 48 49 50 51 51 51 51 49 49 48 47 48 49 50 49 49 47 45 43 42 41 40 39 39 38 37 36 34 33 33 33 34 34 36 39 41 38 35 35 37 38 37 35 33 31 29 28 28 28 27 23 22 24 25 25 24 24 24 23 23 22
44 44 45 45 45 46 47 46 46 46 46 45 45 44 44 44 45 46 46 46 46 45 44 44 44 45 45 47 48 49 50 50 50 51 50 49 48 47 47 48 49 50 49 48 46 44 43 41 40 40 39 38 37 36 35 34 32 32 32 31 34 37 38 37 37 37 39 40 38 36 33 31 29 29 29 29 28 25 24 25 25 24 24 23 24 23 22 21
43 43 44 45 46 46 47 47 48 47 47 47 46 45 45 44 45 45 46 47 46 46 45 44 43 44 44 45 47 48 49 50 50 49 49 49 49 47 47 48 49 49 49 49 48 46 44 42 41 41 40 39 38 36 35 33 31 32 30 30 32 34 35 37 39 39 40 41 39 36 33 31 30 29 29 30 28 25 25 26 25 25 24 24 23 23 22 21
42 42 43 44 45 46 47 48 48 48 48 48 48 47 46 45 45 45 46 47 47 46 46 45 44 43 43 44 45 46 47 49 49 48 49 49 48 48 47 47 48 49 49 49 48 47 46 44 43 41 40 39 38 36 35 33 32 31 29 30 31 30 33 37 38 39 40 41 40 37 34 31 29 29 29 29 28 27 27 27 27 27 26 25 24 23 23 22
41 41 42 44 44 46 47 48 48 49 49 49 49 48 47 46 45 45 45 46 47 47 47 46 44 43 43 43 44 45 46 48 48 47 48 48 47 47 47 47 48 48 49 49 49 48 47 46 44 42 40 39 37 36 35 33 32 30 28 30 29 29 33 35 38 39 40 41 40 38 34 31 29 29 29 29 30 29 29 29 29 28 28 28 27 26 25 24
42 42 43 44 44 45 46 47 48 49 49 49 49 49 48 47 46 46 45 46 47 47 47 47 45 44 43 43 44 45 45 47 46 46 47 47 46 47 47 47 47 48 48 49 49 49 48 47 45 42 40 39 37 36 36 34 33 31 29 29 28 29 31 34 37 39 40 41 40 38 34 31 29 29 29 30 31 30 29 30 30 30 29 28 27 27 26 25
44 44 44 45 45 45 46 47 48 49 49 50 50 50 49 48 48 47 46 46 46 47 47 47 46 44 43 44 44 44 43 45 46 46 46 47 46 46 47 47 46 47 47 48 49 49 48 47 45 43 41 39 38 37 36 34 33 31 29 28 28 29 30 34 36 38 40 41 41 38 34 32 30 29 30 31 31 30 30 30 30 31 30 28 27 27 26 25
46 46 46 46 46 47 47 47 48 49 50 50 50 50 50 49 49 48 47 47 46 47 47 47 47 45 45 44 45 43 42 44 46 45 45 46 46 45 47 47 46 46 47 47 48 49 49 48 47 45 43 40 38 37 36 36 34 31 29 28 28 29 31 34 35 37 40 41 41 38 35 32 30 29 30 30 31 31 31 30 31 31 30 28 28 27 25 25
48 47 47 48 48 48 48 48 49 50 50 51 51 51 51 50 49 49 48 47 47 47 47 47 47 46 46 45 45 43 40 43 45 44 45 45 45 45 46 46 45 45 46 47 47 49 49 49 48 46 44 41 39 38 38 38 36 32 30 29 29 29 31 33 34 36 39 41 41 39 36 32 30 30 30 31 31 31 31 31 31 31 29 28 26 25 25 25
50 50 50 50 50 50 50 50 50 50 51 52 52 52 52 51 50 50 49 48 48 48 48 47 47 47 46 46 45 41 41 43 44 43 44 44 44 44 45 45 45 44 45 46 47 48 48 49 48 46 45 43 40 40 39 38 36 32 31 31 30 30 30 31 32 34 38 41 41 39 36 32 30 30 31 31 31 31 31 31 31 30 28 26 25 25 26 26
53 53 53 52 52 52 52 52 52 52 52 53 53 53 53 52 51 51 50 50 49 48 48 48 48 48 47 46 42 40 42 43 43 42 42 43 43 43 44 45 45 44 44 46 47 48 49 49 48 47 47 44 42 41 39 38 37 34 33 32 30 30 30 30 31 32 36 39 39 38 35 31 30 31 31 31 31 32 31 31 30 29 27 26 26 26 27 26
54 54 54 54 53 53 53 53 53 53 54 54 54 54 54 53 53 52 51 51 50 49 49 49 49 48 48 45 41 43 45 43 42 41 41 42 42 43 44 44 44 44 44 46 47 48 49 49 49 49 48 45 43 42 39 38 38 36 35 33 32 31 30 30 30 30 33 36 36 36 33 31 31 32 32 32 32 32 31 30 29 28 26 26 27 27 27 25
55 54 54 54 54 53 54 54 54 54 55 55 55 55 55 55 54 54 53 52 51 50 49 49 49 49 48 44 41 47 47 42 41 41 41 41 42 43 43 44 44 43 44 46 47 48 48 49 50 50 48 46 44 41 39 38 38 37 36 36 34 32 31 31 29 27 30 32 33 34 31 31 33 33 33 31 29 28 27 28 28 27 27 27 29 29 27 25
55 55 55 55 55 55 55 55 55 55 56 56 56 57 57 56 55 55 55 54 52 51 49 49 50 49 48 43 43 49 46 41 42 42 41 40 41 42 43 43 43 43 44 46 47 47 48 49 50 50 48 47 45 42 41 40 39 39 39 38 36 34 33 31 29 26 27 29 31 32 31 33 34 33 32 29 26 26 26 27 27 28 29 30 31 30 27 27
56 57 57 57 57 57 57 57 57 57 57 57 58 58 58 58 57 56 57 56 54 52 51 50 50 50 49 45 46 50 47 43 43 43 40 38 40 41 42 43 43 43 44 45 46 47 48 49 50 51 50 49 47 44 43 41 40 41 40 39 38 37 34 31 29 27 26 27 28 28 32 35 33 32 31 27 25 26 27 29 30 32 34 34 34 32 31 30
58 58 58 58 58 59 59 59 59 59 59 59 59 59 59 59 58 58 58 58 55 53 52 51 50 50 49 47 48 51 48 44 44 42 39 38 39 40 41 43 43 42 43 45 46 47 48 49 51 51 50 49 48 47 46 44 42 42 42 43 42 37 34 32 31 28 25 26 26 27 33 34 30 30 29 26 26 26 28 33 37 39 38 37 37 35 34 33
57 57 57 58 58 59 59 60 60 61 61 61 61 61 60 60 59 59 59 59 58 55 53 51 50 50 50 50 50 51 49 46 44 42 39 38 38 39 40 42 43 43 43 44 46 48 49 50 50 50 51 51 50 50 48 45 43 43 44 44 41 36 34 33 32 29 26 26 25 28 32 29 26 29 29 27 28 30 35 39 42 43 37 33 34 33 30 29
55 55 55 55 56 57 58 59 60 61 61 62 63 62 62 61 60 60 60 60 59 57 54 53 51 51 51 51 52 51 50 48 45 43 40 38 38 39 39 41 43 43 43 44 46 47 49 50 50 51 52 53 52 51 48 46 46 44 42 40 36 34 35 35 34 30 27 27 26 28 30 27 26 29 28 28 32 37 40 40 41 40 36 32 30 28 28 28
54 54 54 53 53 53 54 56 57 59 60 62 64 64 63 63 62 61 61 61 60 58 57 54 52 51 51 51 52 52 51 50 47 44 42 39 38 39 40 41 43 44 45 45 46 46 48 49 49 50 51 52 52 51 50 50 47 43 39 38 36 35 36 37 35 30 28 28 27 28 29 27 27 28 28 30 35 38 37 35 34 30 28 31 30 29 30 30
53 53 53 52 52 51 51 52 53 55 58 60 62 64 64 65 64 62 62 61 60 59 58 56 53 52 52 51 52 52 52 51 48 46 43 40 39 40 40 42 43 44 45 46 46 47 48 48 49 49 50 51 51 51 53 51 45 40 38 38 37 35 37 38 36 33 31 30 29 29 29 28 28 29 30 33 35 35 34 31 30 26 19 23 27 29 29 30
51 51 51 51 51 50 50 49 50 51 53 56 59 61 63 65 66 65 63 61 59 59 59 57 54 52 52 52 52 52 53 52 50 47 45 43 41 40 40 42 43 43 44 47 48 48 48 48 48 49 50 51 52 52 52 47 43 40 39 39 37 36 39 40 38 36 33 32 33 31 29 30 31 31 31 33 33 32 31 29 28 28 23 21 23 24 24 26
50 49 49 49 48 48 48 48 47 48 49 52 55 57 60 63 65 66 65 63 60 59 59 57 54 52 52 53 52 52 53 53 52 50 47 46 44 42 41 41 43 44 45 46 46 46 47 47 48 51 53 52 51 51 50 47 45 43 42 40 39 38 39 39 39 38 35 35 35 32 31 32 32 31 31 31 31 29 30 30 28 27 24 24 25 22 21 20
50 49 48 46 46 45 45 45 45 45 46 48 51 54 56 59 62 65 66 65 61 58 58 58 55 53 54 54 53 52 53 54 54 52 49 48 46 44 41 39 41 44 44 44 44 45 46 47 50 51 51 49 48 50 51 50 48 46 44 42 41 40 39 40 41 40 37 37 36 32 33 34 32 32 32 30 31 30 30 31 29 25 21 22 23 22 22 20
53 51 47 44 42 41 41 41 41 41 42 43 46 50 52 54 56 60 64 66 63 58 58 58 54 53 55 54 52 52 53 55 56 54 51 49 47 45 42 40 41 42 42 43 44 46 47 49 49 47 46 47 49 50 51 50 49 48 46 45 44 42 40 41 42 40 38 38 37 35 35 36 33 32 33 32 32 32 32 31 29 25 21 19 19 21 21 19
55 51 46 42 39 37 38 39 38 37 36 36 39 43 46 48 50 54 59 64 64 58 56 58 54 52 54 53 51 51 52 54 55 54 52 50 48 46 44 43 42 41 41 43 44 46 50 51 46 43 45 48 49 50 50 50 50 49 47 46 45 43 41 42 41 38 37 39 39 38 37 37 35 33 33 32 32 32 31 31 30 26 22 20 19 20 21 17
53 49 43 39 35 34 36 37 35 33 30 30 32 34 39 40 41 46 51 57 62 58 55 56 53 51 53 53 52 51 52 52 54 54 52 50 49 48 47 44 42 41 42 44 46 47 50 49 44 44 46 49 50 50 50 49 49 50 49 47 45 42 42 43 40 37 38 42 43 40 38 36 34 34 34 33 33 33 31 30 29 27 23 20 19 20 19 16
50 45 40 35 33 35 35 32 29 27 24 22 24 26 30 31 31 36 41 48 54 54 53 53 51 50 52 54 52 52 52 52 53 54 52 51 50 48 47 45 43 43 42 42 44 47 49 46 43 45 47 49 50 50 50 49 48 51 50 47 45 44 44 42 39 38 42 45 43 39 39 38 37 36 35 35 35 33 31 28 27 26 22 20 19 19 18 16
46 41 37 35 35 34 30 25 22 21 17 17 19 20 23 24 27 29 32 38 43 45 50 51 49 50 51 53 52 51 52 52 53 53 52 52 51 48 48 47 46 45 42 40 42 47 47 44 43 45 46 47 48 50 51 48 49 53 50 47 46 45 44 43 40 41 44 43 41 40 41 40 40 39 36 36 36 33 30 27 27 26 23 21 20 18 18 17
43 38 36 36 34 29 24 20 16 12 13 19 19 20 25 23 24 26 26 31 34 38 45 48 47 49 51 52 51 51 51 52 53 52 52 52 50 49 49 47 47 46 43 41 44 47 46 43 44 45 45 46 48 51 49 46 49 51 47 46 46 45 45 45 44 44 45 45 43 42 43 41 41 41 38 36 33 31 28 26 27 27 24 22 20 18 18 18
40 37 35 33 29 22 17 12 4 10 19 23 20 22 27 24 22 24 24 25 28 31 38 43 45 47 49 50 50 50 51 52 52 52 52 52 50 50 50 49 48 47 45 44 46 46 44 44 44 45 46 48 49 48 46 46 50 48 45 46 47 46 46 46 46 46 47 47 43 42 46 45 41 41 41 38 34 31 29 28 28 27 25 23 20 19 19 20
38 35 33 28 21 15 7 4 14 20 22 22 22 24 26 24 23 23 21 22 24 27 32 39 42 45 48 49 49 49 49 51 51 51 51 51 50 50 50 49 48 48 47 48 48 46 43 43 45 46 48 49 47 47 47 50 51 47 46 48 49 48 48 48 49 50 49 48 46 47 49 46 41 42 43 39 35 34 31 29 29 28 26 24 21 21 21 21
35 33 28 20 13 7 11 20 25 24 21 20 23 25 26 25 23 22 23 21 21 25 29 35 40 44 47 48 49 49 49 50 50 50 49 50 50 49 49 49 47 46 47 48 49 47 44 46 48 48 48 49 47 47 50 52 52 50 49 51 51 50 52 52 52 52 50 50 51 51 49 46 43 45 47 40 35 35 33 31 30 29 28 26 23 22 21 21
32 30 20 14 11 13 23 25 22 20 18 18 22 26 26 24 23 25 26 21 19 23 28 33 38 42 45 47 49 49 49 50 50 49 50 49 50 50 50 50 48 47 46 46 48 46 45 47 49 49 49 50 49 48 49 50 51 50 50 51 51 51 52 52 52 52 50 51 53 51 49 47 45 48 48 43 37 35 34 33 32 30 29 27 24 22 20 20
29 24 13 15 15 19 23 17 15 15 17 20 26 29 24 21 25 28 26 22 19 21 25 31 36 40 44 46 48 49 49 50 50 49 49 49 50 50 50 49 48 48 47 47 47 45 43 44 45 48 50 50 50 50 49 49 49 49 49 50 51 51 51 51 52 51 50 53 55 51 48 48 49 50 47 42 40 37 35 35 32 30 29 25 22 21 20 21
26 17 11 17 18 19 17 13 13 13 18 26 30 27 20 20 28 29 25 23 21 20 23 28 34 38 42 45 46 48 47 48 49 50 50 49 49 49 50 49 47 47 46 46 46 44 43 43 44 47 49 48 49 50 51 51 49 49 50 51 51 49 50 52 52 51 51 54 54 49 48 49 50 49 46 43 42 39 37 36 32 30 28 25 24 23 21 22
22 12 9 14 16 15 12 12 11 12 22 31 30 22 18 23 30 30 27 24 23 24 23 25 31 35 40 44 45 48 47 47 48 48 49 49 49 49 49 49 48 47 46 45 45 43 43 44 43 45 46 46 47 49 50 49 48 49 50 51 51 52 54 55 53 52 51 52 52 49 47 49 49 49 47 45 43 41 39 36 32 30 28 27 27 25 21 22
20 9 6 10 11 9 8 7 8 15 26 31 27 20 21 27 31 30 28 22 23 26 23 24 29 31 36 42 44 47 48 48 47 47 48 48 48 48 47 47 47 46 46 45 45 43 43 44 43 43 46 47 48 49 49 47 49 51 51 51 53 55 56 54 53 53 52 50 51 49 48 49 50 49 47 44 42 40 38 34 32 30 28 28 27 24 22 23
20 7 3 7 5 4 6 4 6 19 28 28 23 20 22 29 32 30 26 20 22 26 23 24 28 28 33 40 43 45 47 47 47 47 47 47 47 47 45 45 45 45 46 45 44 43 43 44 42 42 46 47 48 49 49 50 52 50 48 50 52 53 51 51 51 52 52 50 50 50 50 51 51 50 48 44 41 38 36 34 32 29 28 28 27 24 24 24
21 10 1 7 5 2 3 2 7 20 28 26 21 20 23 32 32 28 24 22 24 26 23 23 26 27 31 37 42 44 46 47 46 46 46 46 46 46 45 45 44 45 45 44 44 44 43 44 42 42 45 47 48 49 49 50 51 48 48 51 52 52 51 50 50 51 51 50 50 51 50 49 51 51 46 43 41 39 36 34 31 30 29 29 27 25 24 24
23 14 5 4 6 2 4 6 11 22 28 25 19 20 28 35 31 25 24 26 27 25 22 23 25 26 30 35 40 42 44 45 45 45 45 44 44 44 44 44 43 43 43 43 44 44 43 43 42 42 45 46 46 46 47 48 48 48 49 50 49 51 53 51 51 52 51 50 51 51 49 47 49 50 45 42 41 39 36 34 32 32 31 29 28 27 25 24
27 19 14 10 6 8 14 18 20 24 26 23 18 21 31 34 28 26 27 28 27 24 22 23 25 27 29 33 37 39 42 43 42 43 43 43 43 43 43 43 42 42 41 42 44 43 42 42 42 42 42 42 45 46 46 48 48 48 48 47 46 49 51 50 51 52 52 52 52 51 50 47 46 46 45 43 41 39 37 36 34 32 31 30 29 28 26 25
31 28 27 27 24 23 24 24 23 25 23 20 21 27 32 30 26 28 29 28 25 25 23 22 25 28 28 30 34 37 39 41 41 41 42 42 42 42 42 41 42 41 41 42 42 41 42 42 42 41 40 42 46 46 46 48 49 48 47 46 45 46 47 49 51 51 51 52 52 50 50 48 45 44 43 42 40 39 37 36 34 32 29 30 31 29 27 26
32 33 31 29 26 23 21 21 22 22 19 20 25 30 29 27 27 28 28 25 23 24 24 22 23 26 27 28 31 33 36 38 39 40 40 41 42 40 40 40 41 41 40 41 41 39 41 42 42 42 42 45 47 46 46 48 49 49 49 47 46 46 47 49 51 52 51 50 50 49 48 47 45 43 42 40 39 38 36 35 34 31 28 29 30 29 27 25
30 26 23 21 20 19 18 19 19 18 19 23 28 29 27 27 28 26 24 22 22 23 24 22 21 23 25 27 28 29 31 32 35 38 38 39 39 39 39 38 39 40 40 40 40 39 40 42 41 41 42 43 45 46 49 50 50 51 50 49 48 48 48 48 50 50 48 46 48 48 46 46 44 42 41 39 37 36 35 34 33 31 29 29 30 29 26 24
30 26 21 18 18 18 17 17 17 20 23 26 27 27 27 27 26 23 21 22 22 23 23 21 20 22 23 25 26 26 27 27 28 33 35 36 37 37 37 37 37 38 39 39 39 39 39 39 39 39 40 40 40 43 47 48 49 51 50 49 49 48 48 48 48 47 44 45 46 44 44 45 44 42 41 38 36 34 33 33 33 31 30 29 29 28 26 26
28 26 21 18 18 17 18 19 21 24 25 25 25 25 25 24 22 20 19 19 19 21 23 21 19 19 20 22 24 24 24 24 24 28 30 30 32 34 35 35 36 36 36 37 38 38 38 37 38 38 39 40 40 40 43 44 45 47 48 49 48 48 49 48 46 45 43 44 45 44 45 45 43 42 41 38 35 33 31 31 32 32 31 30 29 29 29 29
27 26 24 22 21 22 23 23 24 24 24 24 24 22 20 19 17 15 15 16 18 22 23 22 20 19 19 20 21 22 22 22 23 26 26 24 28 32 32 33 34 34 34 36 36 37 37 37 37 37 38 40 40 40 39 39 40 42 43 45 46 47 48 47 45 45 44 46 46 45 45 45 43 42 40 37 35 34 32 31 32 32 32 31 31 31 31 30
25 24 24 24 24 24 23 22 22 21 20 21 21 18 16 15 14 14 15 18 21 23 23 22 21 20 20 19 19 20 20 22 24 26 26 23 24 28 29 30 32 32 33 34 35 35 36 37 37 37 37 38 38 38 37 39 41 42 42 44 45 45 46 44 44 45 46 46 46 44 43 45 45 42 39 38 37 36 34 33 33 33 32 31 31 31 31 30
21 20 20 20 21 23 23 21 20 19 17 16 16 14 14 15 15 14 15 18 21 21 21 22 22 21 21 20 19 19 19 22 24 25 27 24 22 24 27 28 29 31 31 33 34 34 35 36 36 36 37 37 37 37 38 40 42 43 43 44 45 46 46 45 45 46 46 44 44 44 43 43 43 41 39 39 39 36 34 33 32 32 31 30 30 31 31 30
18 17 16 15 16 18 19 18 16 15 14 13 13 12 14 15 16 16 16 18 19 19 21 22 22 21 21 20 18 18 19 21 23 24 26 26 23 24 25 25 27 28 29 31 32 33 34 34 35 37 37 37 37 37 37 38 39 41 44 44 45 46 47 47 46 47 46 44 44 45 44 42 41 41 40 39 38 37 35 32 31 30 29 29 29 29 29 29
16 15 14 13 13 14 14 14 13 12 12 12 13 13 14 15 16 17 17 17 17 18 20 23 22 22 22 19 17 18 19 21 22 23 26 27 26 25 24 24 25 26 28 29 30 32 33 33 34 35 36 36 35 36 36 36 37 41 43 43 44 45 46 47 48 48 47 45 45 44 42 42 41 39 38 37 36 36 34 32 30 28 27 28 28 28 28 29
Wind_Direction
273 270 269 268 268 266 264 263 262 261 260 259 258 256 255 255 254 254 253 252 251 250 248 248 247 245 244 243 242 241 240 240 240 240 240 239 239 237 236 236 236 236 236 236 236 237 237 237 237 237 237 238 238 238 238 239 240 241 242 243 244 244 244 244 243 243 244 246 245 244 243 241 238 236 237 236 235 231 227 227 228 229 230 232 233 232 235 238
273 269 267 266 266 266 264 263 262 261 260 258 258 257 255 254 254 253 252 252 251 250 249 248 247 246 245 243 242 240 240 239 239 239 239 239 239 237 236 235 235 234 235 235 235 235 235 236 236 235 236 236 236 237 237 237 238 239 241 242 242 242 242 241 240 240 242 244 244 243 242 240 237 234 235 235 234 230 228 228 229 230 230 230 232 232 233 235
274 270 266 264 264 264 263 262 261 260 259 258 257 256 255 254 253 252 252 251 251 250 249 248 246 246 245 244 242 240 239 239 238 238 238 238 238 237 236 235 234 233 233 234 233 233 234 234 234 234 234 234 235 235 236 236 237 239 240 240 240 240 239 238 237 238 241 242 242 242 240 239 236 233 233 233 232 229 228 229 229 231 232 231 231 231 233 234
276 271 267 265 264 263 263 262 261 260 259 258 256 255 254 253 252 251 251 250 250 250 249 248 247 245 244 244 243 241 239 238 237 237 236 237 237 237 236 235 234 232 232 232 232 232 232 232 233 233 233 233 233 233 234 235 236 238 239 240 241 240 237 235 236 237 239 241 241 240 239 237 234 232 231 231 231 229 228 229 228 228 228 230 231 231 232 234
278 274 269 266 264 264 263 263 262 260 259 258 257 255 254 252 251 250 249 249 249 249 249 248 247 246 245 244 243 242 240 238 236 235 235 235 235 236 235 234 233 232 231 231 230 230 231 231 231 231 231 232 231 232 233 233 235 236 237 238 239 238 235 234 234 235 238 240 240 239 237 235 233 231 230 229 229 226 227 229 229 228 225 224 226 229 231 232
281 276 272 269 266 265 264 263 262 261 260 258 257 255 254 252 251 249 248 248 248 247 247 248 247 246 245 244 242 241 239 238 236 234 234 234 233 234 234 233 232 231 230 229 229 229 229 230 231 231 231 231 231 231 232 231 233 234 233 235 236 234 232 231 231 232 235 238 239 238 236 233 231 229 228 227 227 225 224 226 228 229 227 224 224 225 227 229
282 278 274 271 269 266 264 263 262 261 260 259 257 256 254 253 251 249 248 247 247 246 246 247 246 245 244 243 242 241 239 239 237 234 233 233 231 232 233 233 232 231 229 228 228 228 228 229 230 230 230 230 230 230 230 229 230 231 230 232 232 231 230 229 229 230 232 235 237 237 235 232 230 228 227 226 227 226 225 225 227 228 228 228 226 227 229 231
280 278 275 272 270 268 266 263 261 260 259 258 257 256 254 253 251 249 247 246 245 245 245 245 245 244 243 242 242 241 239 238 236 233 232 231 230 229 231 231 230 230 229 227 227 226 227 227 228 229 229 229 228 228 229 228 228 229 229 231 231 230 228 227 227 227 229 234 236 235 233 230 229 228 227 227 227 227 226 226 228 229 229 227 227 229 233 235
280 277 275 273 272 270 267 264 262 260 259 258 257 255 254 253 251 249 248 246 244 244 244 243 244 243 242 241 241 240 238 237 236 233 232 231 229 228 229 229 229 228 227 226 225 225 225 225 226 226 227 227 226 227 227 227 226 225 227 228 229 228 226 225 226 225 226 231 234 234 231 228 227 227 227 227 226 227 228 227 229 231 231 228 228 231 234 237
281 279 276 275 273 271 268 266 263 260 258 257 256 254 253 252 251 250 248 247 245 243 242 242 242 241 241 240 240 239 237 236 236 233 231 230 228 227 227 228 227 226 226 225 224 224 224 224 224 224 225 225 224 225 224 225 224 221 224 225 225 226 225 225 227 226 225 228 232 232 230 226 224 226 226 226 226 226 228 228 229 230 230 230 230 232 235 238
282 280 278 276 274 272 270 267 264 261 258 256 255 254 253 252 251 250 249 247 245 244 242 241 240 240 239 239 239 238 237 236 235 232 230 228 227 226 225 226 226 225 224 224 223 223 223 223 223 223 224 223 222 223 223 224 222 219 222 224 224 225 225 226 228 227 223 226 230 230 229 226 223 226 226 225 225 225 226 227 229 230 229 229 229 231 235 238
283 281 279 277 275 273 270 268 265 262 259 256 254 253 252 251 250 250 249 247 245 244 243 240 239 238 238 237 237 237 236 235 234 232 230 227 226 225 224 224 225 223 222 222 222 222 221 221 221 222 223 223 222 223 222 222 221 218 220 222 223 224 224 225 228 227 223 225 229 229 228 224 222 225 227 226 224 224 224 226 229 230 228 227 228 230 234 238
284 282 280 277 275 273 270 268 265 262 259 256 254 252 251 250 250 248 248 247 246 243 242 241 239 237 236 234 233 235 235 233 233 231 228 226 225 223 222 222 222 222 220 220 220 220 220 220 219 220 221 221 222 222 222 221 220 217 218 220 221 223 224 224 227 228 224 226 228 227 225 224 222 223 225 225 225 225 225 226 229 231 229 228 229 232 235 239
284 282 280 278 276 273 271 268 265 263 260 257 254 252 251 250 249 248 247 246 245 244 241 240 239 237 235 231 229 233 234 231 232 231 227 224 223 222 221 220 220 219 218 218 219 219 219 218 218 219 219 219 220 221 221 221 220 217 217 219 219 221 223 222 225 226 224 225 227 224 221 224 222 221 224 226 228 229 229 231 232 232 231 231 232 233 236 242
286 283 281 279 276 273 271 268 265 263 260 258 255 252 250 249 248 248 247 244 244 243 241 239 238 236 234 228 226 232 232 229 230 230 227 223 221 221 219 219 218 217 217 217 218 217 217 218 218 218 218 218 218 218 219 219 219 217 216 217 217 220 221 221 222 224 223 223 225 221 217 223 223 219 223 225 229 232 234 236 236 236 235 234 235 237 239 242
286 284 281 279 276 273 271 268 265 263 260 258 255 253 250 249 248 247 246 244 242 242 241 239 236 235 233 226 225 230 230 226 228 229 226 222 220 219 218 218 217 216 216 216 216 216 216 217 217 217 216 216 215 216 218 217 217 216 215 217 218 219 220 220 220 220 220 220 222 215 213 222 221 218 221 223 227 230 232 234 235 236 233 231 231 232 234 236
286 284 281 279 276 273 270 268 265 263 260 258 255 253 251 249 247 246 245 244 242 240 239 238 236 234 231 226 223 227 228 225 226 227 225 221 219 218 217 217 216 215 215 215 215 215 215 216 216 217 216 216 214 214 216 215 215 214 213 216 216 216 217 219 219 217 216 218 220 212 213 220 217 215 219 220 225 228 228 231 234 233 230 231 229 226 228 227
288 285 282 279 276 273 270 267 264 262 259 257 255 253 251 248 246 245 244 243 242 240 238 236 235 232 229 225 222 224 226 224 223 224 223 220 218 216 215 216 215 214 214 214 214 214 214 215 215 216 215 215 214 214 215 214 215 214 213 215 215 215 216 219 219 216 213 216 218 214 215 219 214 214 217 217 222 225 225 226 229 230 230 233 231 227 228 222
291 288 284 281 277 273 270 267 264 261 258 255 254 252 250 248 245 243 242 241 241 239 236 234 233 231 228 224 222 221 223 223 221 221 221 218 216 215 213 214 214 213 213 213 214 213 214 214 214 215 214 214 214 214 214 214 215 214 213 215 216 216 217 219 218 214 212 214 216 215 217 217 213 214 214 215 221 224 225 225 227 229 227 226 224 222 223 220
295 292 288 284 280 275 271 267 263 260 257 253 251 249 248 246 244 242 240 239 239 238 236 232 230 230 228 224 221 219 220 221 219 218 219 216 215 213 212 212 212 212 211 212 213 213 214 214 214 216 215 215 214 213 214 214 214 212 212 214 214 215 218 220 218 214 213 214 216 216 216 215 212 213 215 218 224 224 228 232 232 233 222 215 217 219 219 217
299 296 293 289 284 280 275 269 264 260 256 253 250 247 244 243 242 240 238 237 236 236 235 232 228 227 227 223 220 218 218 220 218 217 217 215 214 213 211 211 212 212 211 211 211 212 213 214 214 215 216 216 214 213 215 215 213 211 211 213 212 212 216 219 218 215 213 214 218 217 216 215 212 214 215 218 224 225 231 236 237 243 228 210 219 222 221 220
306 303 299 294 289 284 278 273 267 261 256 253 250 247 243 241 239 238 237 235 233 234 233 231 226 225 225 223 219 216 215 217 218 216 216 215 213 212 210 211 212 212 211 211 211 211 212 212 212 213 214 215 214 214 216 215 212 211 211 212 211 211 215 217 216 214 212 214 218 215 216 217 214 215 214 215 220 225 233 238 237 242 237 224 225 222 222 225
315 311 305 299 293 287 282 276 269 262 257 252 249 246 243 240 238 236 234 232 230 230 231 230 225 222 223 222 218 215 214 215 217 215 214 214 213 212 210 209 211 211 211 212 212 212 212 211 211 212 213 213 213 213 214 213 212 210 210 210 210 210 214 216 216 214 212 214 216 214 217 220 217 217 215 214 218 224 233 238 238 236 231 230 230 224 226 232
323 318 310 303 296 290 285 279 273 265 258 252 247 244 242 240 237 234 232 230 227 227 228 228 223 219 221 221 217 214 212 213 215 215 214 214 213 212 210 209 211 212 212 212 212 213 214 213 212 212 212 212 212 212 213 212 211 210 209 208 209 210 212 215 216 213 213 215 215 214 219 222 219 219 219 217 219 223 230 235 238 234 227 231 236 237 239 241
329 323 315 308 300 294 288 284 280 272 263 254 247 242 240 238 236 234 231 229 225 223 225 225 221 218 218 219 216 214 212 212 214 214 213 213 213 212 210 209 210 211 211 211 211 212 213 214 213 212 211 211 212 212 212 211 211 210 208 207 208 207 209 215 216 213 214 217 215 215 221 223 222 221 220 219 220 223 228 233 236 234 227 228 238 247 247 243
331 326 319 313 304 298 293 289 284 278 269 257 246 241 238 236 234 232 230 227 224 220 222 222 219 216 216 216 215 213 211 212 213 213 213 213 212 212 211 209 210 210 209 210 211 212 213 213 211 210 210 211 212 213 212 211 211 211 209 208 209 206 208 214 216 214 217 220 217 214 220 225 225 225 222 222 223 223 224 230 234 233 228 226 231 241 247 246
331 327 322 316 308 303 300 294 287 279 269 255 242 236 233 230 230 230 228 226 223 219 218 220 216 213 213 213 212 210 209 210 211 212 212 213 212 212 211 210 209 210 209 210 211 212 214 211 208 208 209 210 211 212 212 211 211 212 209 208 209 206 208 213 213 213 216 220 218 214 217 223 226 226 224 223 225 225 224 227 232 233 228 225 226 233 240 243
331 328 323 319 313 309 305 298 286 274 263 246 231 224 219 216 218 224 225 224 222 218 216 217 214 210 210 211 210 209 207 207 209 210 210 212 212 211 212 210 209 211 210 211 213 214 214 210 207 208 209 209 210 211 211 209 210 213 209 207 208 206 208 212 212 213 216 220 220 217 218 222 226 227 225 224 225 225 223 224 231 234 230 225 226 230 234 236
332 328 324 320 317 312 308 300 285 270 251 218 205 201 192 195 205 213 219 219 217 215 214 214 212 208 208 209 208 207 206 205 207 207 208 210 210 209 210 209 209 210 208 210 215 216 214 209 207 209 209 209 209 210 210 208 210 213 209 206 208 207 208 210 211 213 218 220 220 221 220 222 229 229 225 225 226 225 223 223 228 232 230 226 226 229 233 234
333 330 325 321 321 315 308 302 289 262 207 178 175 173 168 179 197 201 207 209 208 210 210 210 209 205 205 206 206 206 204 204 205 205 205 207 207 208 209 207 208 209 207 208 214 216 213 210 207 208 208 209 210 210 208 207 211 213 209 207 208 207 209 210 211 214 217 217 216 221 222 221 227 231 228 226 227 227 225 224 227 229 231 230 229 233 235 236
335 332 327 325 324 319 313 311 272 168 158 155 155 161 165 173 184 188 193 195 198 204 206 207 206 203 203 204 204 204 203 203 204 204 204 205 205 205 206 206 206 207 205 208 213 214 211 209 208 207 207 208 209 209 206 207 212 211 208 209 209 208 209 211 213 215 217 216 214 220 224 221 223 231 231 228 228 229 226 225 226 228 230 231 231 234 236 237
338 335 333 332 331 329 337 103 132 133 137 145 151 158 164 166 168 171 174 178 187 196 201 203 202 200 202 202 201 201 201 201 202 203 204 204 204 205 205 205 206 206 205 207 212 212 209 209 208 206 207 208 207 206 204 207 210 208 206 209 209 208 209 210 213 216 216 217 215 218 223 222 222 229 231 227 225 227 226 225 226 227 228 229 229 230 231 233
341 341 342 346 355 28 100 120 123 123 130 143 151 154 157 156 153 153 153 160 177 189 197 200 199 198 200 200 199 198 197 199 200 201 202 203 204 204 204 205 205 206 207 209 212 212 207 207 207 206 206 206 206 206 205 207 208 206 205 208 209 208 209 210 213 215 216 218 217 217 220 221 222 228 229 225 223 225 225 225 225 226 227 226 225 225 227 230
346 347 355 18 40 97 117 116 110 112 126 141 150 150 146 142 142 146 148 151 168 182 190 195 196 197 198 198 197 196 195 196 198 199 200 201 202 202 203 204 203 204 207 209 213 214 210 209 207 204 205 205 204 205 206 207 208 206 205 207 209 209 210 211 213 215 216 220 221 217 218 220 222 227 227 225 225 225 226 227 225 225 226 225 225 225 227 230
352 355 26 58 73 115 123 112 96 102 126 143 147 141 130 133 146 152 154 152 161 174 182 188 192 194 196 196 194 193 194 194 195 197 199 200 201 202 203 204 203 204 205 207 211 213 213 214 210 206 206 204 203 204 204 205 207 207 206 208 209 209 210 212 214 216 216 221 223 218 218 220 222 226 226 224 227 227 227 229 227 227 227 226 227 227 227 229
356 7 68 79 86 117 124 114 104 114 140 143 141 134 121 137 153 156 156 150 153 166 173 181 188 191 193 194 192 191 192 193 194 195 196 198 200 201 202 203 203 204 206 208 210 211 212 215 212 210 209 206 204 204 204 203 204 205 206 208 209 209 211 213 214 216 218 223 225 221 219 222 224 228 227 224 226 227 227 229 228 228 228 225 226 226 224 226
359 16 90 94 96 111 118 125 121 130 146 144 144 139 128 145 157 157 154 144 147 162 164 171 184 189 191 192 191 189 189 192 194 195 195 197 199 200 201 202 202 203 205 207 209 210 213 214 211 209 209 208 206 207 206 203 202 203 204 206 208 208 210 212 212 216 218 223 227 224 221 224 225 228 229 224 224 227 228 229 229 228 227 226 225 224 221 225
2 12 108 114 104 87 82 115 137 142 149 153 151 132 124 148 160 160 154 138 140 157 160 163 174 183 189 190 189 188 188 190 192 193 195 197 199 200 201 202 202 203 205 207 209 209 212 214 211 208 208 207 207 208 206 204 204 205 203 204 208 210 212 211 211 214 217 220 226 226 223 225 227 229 230 227 225 227 229 230 231 229 228 227 225 222 221 224
7 7 156 150 120 58 55 75 140 154 161 166 153 121 125 153 160 156 147 125 132 153 158 159 166 175 185 188 187 187 188 189 190 192 194 196 199 199 200 201 202 203 204 206 209 209 211 213 211 208 208 208 207 208 206 205 207 206 203 204 208 211 214 215 213 215 217 218 224 227 224 225 227 228 230 229 227 227 229 230 231 230 229 227 223 220 221 224
13 13 283 195 179 53 39 62 151 166 170 167 147 124 135 153 155 144 128 116 133 152 156 157 161 169 180 185 186 186 187 188 189 191 193 196 198 199 200 200 201 203 204 204 208 210 211 213 210 207 209 208 208 209 207 207 209 206 204 205 207 209 212 214 215 216 217 219 223 226 226 226 227 228 229 230 228 228 228 228 229 229 228 226 220 217 219 222
21 25 26 196 210 328 46 100 142 162 165 158 142 132 143 150 144 126 114 122 140 152 154 155 160 167 175 182 184 185 186 187 188 190 192 195 197 199 200 200 201 203 204 204 207 209 210 213 211 207 208 208 208 209 208 209 210 207 207 207 206 209 211 211 213 215 216 218 222 225 227 228 229 228 228 230 230 229 229 228 227 227 225 223 219 216 216 219
29 39 54 77 93 89 95 105 125 147 156 156 148 142 145 144 130 112 113 128 145 155 154 153 161 168 172 178 181 183 185 186 187 189 191 194 196 199 199 200 201 202 203 205 208 208 209 212 211 208 207 207 208 208 208 209 209 208 208 207 207 210 212 212 213 215 215 216 220 223 225 227 228 228 227 227 228 228 228 228 227 226 223 220 218 216 216 217
46 60 70 77 83 94 102 108 123 139 148 151 148 144 141 131 113 107 117 133 150 159 156 153 161 166 168 171 176 180 183 185 186 187 190 192 195 198 199 199 200 201 203 205 208 208 209 210 211 209 205 206 208 207 207 209 209 208 208 207 207 211 214 214 215 216 216 216 219 222 224 226 227 228 227 226 226 227 228 230 229 227 222 218 218 218 218 218
58 69 72 72 75 84 101 119 132 141 145 147 144 139 129 114 106 112 125 139 152 159 158 154 159 165 165 167 171 177 181 184 186 187 189 192 194 197 198 198 199 200 202 206 207 207 209 211 212 210 206 206 207 205 206 209 210 210 209 206 205 209 213 215 216 217 216 215 218 221 224 227 228 229 228 227 226 228 229 231 231 228 223 218 218 218 219 219
47 58 62 64 70 83 106 126 136 141 142 141 138 128 112 103 108 120 135 147 153 158 156 151 155 162 164 165 167 172 177 180 185 187 189 192 194 196 198 199 199 200 202 205 206 206 209 211 212 212 211 211 209 206 206 208 208 209 209 206 205 207 211 214 217 220 218 217 219 220 222 228 229 230 230 228 227 229 231 231 230 228 224 219 217 218 218 219
35 41 49 63 79 96 117 130 136 138 135 130 123 110 100 103 117 134 150 155 154 153 147 143 151 158 161 165 166 167 172 175 181 186 189 192 195 196 198 199 200 201 202 204 206 206 209 212 213 214 214 214 214 211 210 209 208 208 208 207 206 206 209 212 215 218 219 220 221 219 220 226 228 229 231 229 228 229 230 230 228 227 224 220 217 216 215 217
40 44 53 70 87 104 120 127 128 125 118 111 102 96 102 117 133 144 152 153 147 143 139 138 143 150 157 165 166 167 170 170 176 183 186 190 195 197 199 200 201 202 202 203 205 206 207 210 212 214 215 214 214 213 212 213 213 212 210 208 206 206 209 212 212 214 215 219 222 220 219 223 225 226 228 230 229 229 227 227 227 225 222 219 217 215 214 216
52 60 67 79 94 108 115 115 112 105 95 90 92 99 114 129 135 133 134 138 138 140 142 138 137 143 151 160 165 167 168 168 173 180 181 185 194 197 199 201 202 202 202 203 205 206 206 208 209 213 215 215 215 213 211 212 214 215 215 214 211 209 211 212 212 213 214 216 219 220 220 221 223 224 226 229 230 227 224 224 225 225 222 218 216 216 215 216
52 63 70 76 84 91 94 91 87 82 80 87 97 108 119 122 119 118 127 136 140 143 145 141 139 145 148 150 157 162 168 174 176 179 181 182 190 196 200 201 203 203 203 204 205 206 207 209 209 210 214 215 216 213 209 208 210 211 212 214 214 213 214 214 214 216 217 216 216 218 219 220 222 223 223 225 228 226 223 222 223 224 223 220 217 217 218 219
44 55 65 71 75 75 73 72 73 75 81 92 99 104 109 106 102 107 122 135 140 143 143 141 141 144 143 141 146 153 167 178 180 183 184 182 185 193 197 200 203 204 204 204 206 206 207 209 209 210 212 214 214 213 210 209 209 209 209 210 212 213 214 214 215 218 219 218 218 218 219 219 220 220 219 220 223 225 225 224 225 226 225 222 218 217 218 220
44 54 59 64 73 79 81 84 87 90 93 94 93 94 99 100 96 99 114 130 138 142 143 143 143 142 141 141 143 149 161 173 181 186 186 184 186 190 192 196 201 203 204 204 205 206 206 207 209 210 212 212 212 212 211 210 211 210 209 209 210 212 212 212 214 218 220 219 219 220 219 220 220 219 218 217 219 223 225 225 227 228 227 226 221 218 219 220
46 54 57 59 66 76 87 94 97 99 100 95 90 92 100 106 101 101 113 128 136 142 146 145 143 141 141 141 145 151 159 169 178 185 187 187 188 189 191 193 196 200 203 204 205 206 205 206 209 211 212 212 211 211 210 210 212 212 210 209 210 212 213 213 213 216 218 218 219 219 219 220 220 219 219 218 218 222 225 227 229 230 229 228 225 221 218 218
Height
5718 5718 5717 5717 5716 5715 5715 5714 5714 5714 5714 5714 5714 5715 5716 5716 5718 5719 5720 5722 5723 5725 5726 5728 5730 5732 5734 5736 5738 5740 5742 5745 5748 5750 5752 5754 5756 5760 5763 5767 5771 5774 5777 5780 5784 5786 5789 5791 5793 5796 5798 5800 5802 5804 5805 5807 5809 5811 5812 5814 5817 5819 5820 5822 5824 5824 5824 5825 5827 5830 5832 5835 5837 5839 5840 5841 5842 5844 5846 5846 5846 5847 5847 5848 5849 5850 5851 5853
5712 5711 5711 5711 5710 5709 5709 5709 5708 5708 5708 5708 5708 5709 5710 5711 5712 5713 5714 5716 5718 5719 5721 5723 5725 5727 5729 5731 5733 5735 5737 5739 5742 5745 5747 5749 5752 5755 5759 5762 5765 5769 5772 5775 5779 5782 5784 5787 5789 5792 5794 5796 5798 5800 5802 5804 5806 5808 5809 5811 5814 5815 5816 5818 5820 5820 5821 5822 5824 5826 5829 5832 5835 5836 5837 5838 5840 5842 5844 5844 5844 5845 5846 5847 5848 5849 5850 5852
5705 5704 5704 5704 5703 5703 5702 5702 5702 5702 5702 5702 5702 5703 5703 5704 5705 5707 5708 5710 5712 5714 5716 5717 5719 5721 5723 5725 5727 5729 5731 5734 5736 5739 5742 5744 5747 5750 5753 5756 5760 5763 5767 5770 5774 5777 5780 5783 5785 5788 5790 5792 5794 5797 5799 5801 5803 5805 5806 5808 5810 5810 5812 5815 5816 5816 5817 5818 5820 5823 5826 5829 5832 5834 5835 5836 5838 5840 5841 5841 5843 5844 5845 5846 5847 5848 5849 5850
5698 5697 5697 5697 5697 5696 5696 5696 5696 5696 5696 5696 5696 5696 5697 5698 5699 5701 5702 5704 5706 5708 5710 5712 5714 5716 5718 5720 5721 5724 5726 5728 5730 5734 5737 5739 5742 5745 5748 5751 5754 5758 5762 5765 5769 5773 5775 5778 5781 5783 5786 5788 5791 5793 5795 5798 5801 5802 5804 5806 5806 5807 5810 5811 5812 5813 5814 5815 5817 5821 5824 5826 5829 5831 5832 5834 5836 5838 5839 5840 5840 5842 5843 5844 5845 5846 5847 5848
5692 5691 5691 5690 5690 5690 5690 5689 5689 5689 5690 5690 5690 5690 5691 5692 5693 5694 5696 5698 5699 5702 5704 5706 5708 5710 5713 5715 5716 5719 5721 5722 5725 5729 5730 5733 5737 5740 5743 5746 5749 5753 5757 5760 5764 5768 5771 5774 5776 5779 5782 5784 5787 5790 5792 5795 5797 5798 5801 5802 5802 5805 5806 5807 5808 5810 5811 5812 5814 5817 5821 5824 5827 5829 5830 5831 5833 5835 5836 5837 5838 5839 5840 5842 5843 5844 5845 5846
5686 5685 5684 5684 5684 5684 5683 5683 5683 5683 5683 5684 5684 5684 5685 5685 5687 5688 5690 5691 5693 5696 5698 5700 5702 5705 5707 5709 5710 5713 5715 5716 5720 5723 5725 5729 5732 5735 5738 5741 5744 5748 5752 5755 5759 5763 5766 5769 5772 5776 5779 5781 5784 5787 5789 5792 5793 5795 5798 5798 5800 5801 5802 5803 5805 5807 5808 5809 5811 5814 5818 5822 5824 5826 5827 5829 5830 5831 5833 5834 5835 5837 5838 5839 5840 5842 5843 5844
5679 5678 5678 5677 5677 5677 5677 5676 5676 5676 5677 5677 5677 5678 5678 5679 5680 5681 5683 5685 5687 5689 5691 5694 5696 5699 5702 5703 5705 5707 5709 5711 5715 5718 5720 5723 5727 5730 5733 5736 5739 5743 5747 5750 5754 5758 5762 5765 5769 5772 5775 5778 5781 5783 5785 5788 5790 5792 5794 5795 5797 5798 5799 5800 5801 5804 5805 5806 5808 5811 5815 5819 5821 5823 5825 5826 5827 5829 5830 5831 5833 5834 5836 5837 5839 5839 5840 5842
5672 5671 5671 5670 5670 5669 5669 5669 5669 5669 5670 5670 5671 5671 5672 5673 5674 5675 5676 5678 5681 5683 5685 5688 5690 5694 5696 5697 5699 5701 5705 5706 5709 5712 5715 5718 5721 5725 5727 5730 5735 5738 5742 5746 5750 5754 5757 5761 5765 5768 5771 5774 5777 5780 5782 5785 5787 5789 5791 5793 5794 5795 5796 5796 5798 5801 5802 5803 5805 5808 5812 5816 5818 5821 5822 5823 5825 5826 5828 5829 5831 5832 5833 5835 5837 5837 5839 5840
5664 5664 5663 5662 5662 5662 5662 5662 5662 5662 5663 5663 5664 5665 5666 5667 5667 5669 5670 5672 5674 5676 5679 5681 5684 5687 5689 5691 5693 5696 5699 5701 5703 5707 5710 5713 5716 5719 5722 5725 5730 5733 5737 5741 5745 5749 5752 5756 5760 5764 5767 5770 5774 5776 5779 5781 5783 5786 5789 5790 5791 5792 5792 5793 5795 5797 5799 5800 5802 5805 5809 5813 5816 5818 5820 5821 5822 5824 5825 5827 5828 5829 5831 5833 5834 5836 5837 5838
5657 5656 5655 5655 5654 5654 5654 5654 5654 5654 5655 5656 5656 5657 5659 5660 5661 5662 5664 5665 5667 5670 5672 5675 5678 5681 5683 5685 5688 5691 5694 5695 5698 5702 5705 5708 5711 5715 5718 5721 5725 5729 5733 5737 5741 5744 5748 5752 5755 5759 5763 5766 5770 5772 5775 5777 5780 5784 5785 5786 5788 5789 5789 5791 5792 5794 5796 5798 5799 5802 5806 5810 5813 5815 5816 5818 5820 5821 5822 5824 5825 5827 5829 5831 5833 5834 5835 5835
5649 5648 5647 5647 5646 5645 5645 5645 5646 5646 5647 5648 5649 5650 5651 5653 5654 5656 5657 5659 5661 5663 5666 5669 5671 5674 5677 5680 5683 5687 5689 5690 5693 5697 5700 5703 5706 5710 5713 5716 5720 5724 5728 5732 5736 5739 5744 5748 5751 5756 5758 5762 5765 5768 5771 5773 5777 5781 5782 5783 5785 5786 5787 5789 5790 5791 5794 5795 5796 5800 5804 5808 5811 5812 5813 5815 5817 5819 5820 5821 5823 5825 5827 5829 5831 5832 5832 5833
5640 5639 5638 5638 5637 5637 5636 5637 5637 5637 5638 5639 5640 5642 5644 5645 5647 5649 5650 5652 5654 5657 5659 5662 5665 5668 5671 5675 5680 5682 5682 5685 5688 5692 5696 5699 5702 5705 5709 5712 5715 5719 5723 5727 5731 5735 5739 5743 5747 5751 5753 5758 5762 5764 5767 5771 5774 5778 5779 5781 5783 5784 5785 5787 5787 5789 5791 5792 5794 5798 5801 5806 5808 5809 5810 5812 5814 5815 5817 5819 5821 5822 5825 5827 5828 5829 5830 5831
5631 5630 5629 5628 5628 5627 5627 5627 5628 5628 5629 5630 5632 5633 5635 5637 5639 5641 5643 5645 5648 5650 5653 5655 5658 5662 5665 5671 5676 5674 5675 5680 5683 5687 5691 5694 5697 5701 5704 5707 5710 5715 5719 5722 5726 5730 5734 5738 5743 5745 5749 5754 5757 5760 5764 5768 5771 5774 5776 5778 5780 5781 5783 5784 5785 5787 5789 5790 5793 5796 5800 5804 5805 5805 5806 5809 5811 5813 5816 5818 5819 5821 5823 5824 5825 5826 5827 5829
5621 5620 5619 5618 5618 5618 5618 5618 5618 5619 5620 5621 5622 5625 5627 5629 5631 5633 5635 5638 5640 5643 5646 5649 5652 5655 5659 5667 5670 5667 5670 5676 5679 5682 5686 5689 5693 5696 5699 5702 5706 5710 5714 5717 5721 5725 5730 5734 5737 5741 5746 5750 5753 5758 5762 5764 5767 5771 5773 5774 5777 5778 5780 5781 5783 5785 5787 5789 5791 5794 5799 5801 5801 5802 5804 5807 5810 5813 5816 5817 5818 5819 5820 5821 5821 5822 5824 5827
5611 5610 5609 5608 5608 5607 5607 5608 5608 5609 5610 5611 5613 5615 5617 5620 5622 5624 5626 5630 5633 5636 5640 5642 5645 5648 5654 5661 5663 5660 5666 5672 5674 5676 5681 5685 5688 5691 5695 5698 5702 5705 5709 5713 5716 5721 5725 5729 5733 5737 5742 5745 5750 5754 5757 5760 5764 5767 5769 5771 5774 5775 5777 5779 5781 5783 5785 5787 5789 5793 5797 5797 5797 5800 5803 5807 5810 5812 5814 5815 5816 5816 5817 5817 5817 5820 5822 5823
5602 5600 5599 5598 5597 5597 5596 5597 5598 5599 5600 5601 5603 5605 5607 5610 5613 5616 5618 5622 5626 5629 5632 5636 5639 5642 5648 5655 5656 5655 5661 5667 5668 5671 5677 5681 5684 5687 5691 5694 5697 5701 5704 5708 5712 5716 5720 5725 5728 5732 5736 5741 5746 5750 5752 5756 5759 5762 5766 5768 5770 5772 5775 5778 5779 5781 5784 5785 5786 5790 5794 5793 5795 5798 5801 5806 5808 5810 5811 5811 5811 5811 5810 5811 5813 5816 5817 5818
5591 5589 5588 5586 5586 5585 5585 5585 5586 5587 5589 5591 5592 5594 5597 5600 5603 5607 5609 5613 5618 5621 5625 5629 5633 5636 5642 5647 5649 5650 5655 5661 5664 5668 5673 5677 5680 5683 5687 5690 5693 5697 5700 5704 5708 5712 5716 5720 5723 5728 5733 5737 5741 5744 5747 5751 5755 5758 5762 5763 5765 5770 5773 5775 5777 5779 5781 5783 5785 5788 5790 5789 5792 5797 5800 5804 5806 5807 5807 5806 5804 5802 5804 5807 5809 5811 5812 5814
5579 5578 5576 5575 5574 5573 5573 5574 5574 5576 5578 5580 5581 5584 5586 5589 5594 5598 5601 5604 5608 5613 5618 5622 5626 5630 5634 5639 5642 5645 5650 5656 5660 5663 5668 5672 5676 5679 5682 5685 5689 5693 5696 5700 5703 5707 5711 5715 5720 5724 5728 5732 5736 5739 5742 5748 5752 5755 5758 5760 5765 5769 5772 5773 5775 5777 5780 5782 5783 5786 5787 5787 5792 5795 5798 5801 5803 5801 5798 5796 5795 5797 5803 5809 5810 5812 5814 5816
5568 5566 5564 5563 5562 5561 5561 5561 5562 5563 5566 5567 5569 5572 5575 5579 5583 5587 5591 5595 5599 5605 5610 5614 5619 5623 5627 5632 5636 5640 5645 5650 5655 5659 5663 5667 5671 5675 5679 5681 5685 5688 5692 5695 5698 5703 5707 5710 5715 5718 5722 5726 5730 5735 5740 5744 5747 5751 5756 5761 5765 5768 5770 5771 5772 5775 5778 5780 5781 5784 5785 5787 5790 5793 5795 5798 5796 5792 5790 5793 5795 5798 5803 5807 5810 5812 5814 5816
5556 5554 5552 5551 5550 5549 5549 5549 5550 5550 5552 5554 5556 5560 5564 5567 5571 5576 5580 5585 5590 5595 5600 5606 5612 5616 5620 5625 5629 5635 5640 5644 5650 5654 5658 5663 5667 5670 5674 5677 5680 5683 5687 5691 5695 5699 5702 5706 5711 5715 5719 5723 5727 5733 5736 5738 5743 5750 5755 5759 5763 5765 5767 5768 5770 5774 5776 5778 5780 5782 5783 5785 5788 5790 5793 5793 5789 5787 5790 5796 5800 5801 5801 5804 5807 5809 5809 5812
5546 5543 5541 5539 5538 5537 5537 5537 5538 5538 5540 5541 5543 5548 5553 5555 5559 5565 5570 5575 5581 5586 5591 5598 5605 5609 5614 5619 5623 5629 5635 5639 5645 5650 5654 5658 5662 5666 5670 5672 5675 5679 5683 5687 5690 5694 5698 5702 5707 5712 5717 5721 5726 5730 5731 5735 5743 5749 5753 5756 5759 5762 5764 5765 5768 5771 5774 5776 5778 5779 5781 5784 5786 5787 5788 5787 5785 5787 5792 5796 5800 5800 5800 5803 5805 5806 5807 5809
5537 5534 5531 5528 5527 5526 5525 5526 5526 5526 5528 5529 5532 5536 5540 5543 5547 5554 5559 5566 5573 5577 5582 5590 5597 5603 5607 5611 5617 5623 5629 5634 5639 5645 5649 5653 5657 5662 5666 5669 5672 5676 5679 5682 5685 5689 5693 5698 5704 5708 5712 5716 5721 5725 5729 5736 5742 5746 5749 5753 5756 5759 5760 5761 5765 5768 5771 5774 5775 5776 5780 5781 5782 5783 5784 5784 5783 5788 5792 5795 5798 5798 5799 5802 5802 5804 5806 5807
5529 5525 5521 5518 5516 5514 5514 5513 5514 5515 5516 5518 5521 5525 5528 5531 5536 5543 5548 5556 5563 5569 5574 5581 5589 5596 5600 5603 5610 5617 5624 5629 5633 5639 5644 5648 5653 5657 5661 5665 5669 5672 5675 5678 5683 5687 5690 5695 5700 5702 5706 5711 5717 5723 5727 5733 5737 5741 5746 5749 5753 5755 5757 5759 5762 5765 5769 5771 5771 5774 5777 5778 5779 5780 5781 5783 5784 5788 5791 5792 5794 5797 5799 5800 5801 5803 5805 5806
5522 5518 5513 5510 5506 5504 5503 5502 5502 5503 5505 5508 5510 5513 5516 5521 5526 5532 5538 5545 5553 5561 5566 5572 5581 5588 5592 5596 5604 5611 5618 5623 5627 5634 5639 5643 5648 5653 5658 5663 5665 5668 5672 5676 5681 5685 5688 5692 5694 5698 5704 5710 5715 5719 5723 5728 5733 5737 5741 5746 5749 5752 5755 5756 5758 5762 5766 5767 5769 5773 5775 5775 5776 5778 5779 5782 5784 5786 5788 5789 5791 5795 5798 5799 5800 5801 5802 5804
5516 5511 5506 5501 5498 5496 5493 5492 5492 5492 5494 5497 5500 5503 5507 5512 5517 5522 5528 5535 5544 5553 5558 5564 5574 5580 5584 5591 5600 5606 5612 5617 5622 5628 5634 5638 5644 5649 5655 5659 5661 5665 5669 5673 5677 5680 5683 5686 5690 5697 5703 5708 5711 5714 5719 5724 5729 5733 5737 5741 5744 5748 5751 5752 5755 5760 5763 5764 5767 5770 5771 5772 5774 5775 5777 5780 5782 5784 5785 5787 5789 5793 5796 5798 5799 5799 5800 5802
5510 5504 5499 5494 5491 5488 5485 5484 5483 5483 5485 5487 5490 5494 5499 5504 5508 5513 5519 5526 5535 5545 5550 5557 5566 5572 5579 5587 5595 5601 5607 5612 5618 5624 5629 5634 5640 5645 5650 5654 5658 5662 5666 5669 5672 5676 5677 5680 5688 5696 5700 5703 5707 5711 5716 5721 5725 5729 5733 5738 5741 5745 5748 5749 5753 5759 5761 5762 5764 5767 5769 5770 5772 5773 5775 5778 5780 5782 5784 5785 5787 5790 5794 5797 5798 5798 5798 5801
5504 5498 5493 5488 5485 5482 5479 5476 5475 5475 5476 5478 5482 5486 5491 5498 5502 5506 5513 5519 5527 5538 5544 5550 5558 5566 5575 5582 5588 5595 5601 5607 5613 5618 5625 5630 5635 5640 5645 5650 5655 5658 5661 5665 5668 5670 5672 5678 5686 5691 5694 5698 5702 5707 5712 5718 5722 5725 5730 5734 5738 5743 5745 5746 5751 5756 5758 5757 5759 5763 5767 5768 5769 5770 5772 5776 5777 5779 5781 5784 5785 5788 5792 5795 5797 5797 5797 5800
5499 5493 5488 5483 5480 5476 5473 5469 5468 5468 5470 5472 5476 5480 5486 5492 5497 5502 5509 5514 5522 5532 5539 5544 5553 5562 5570 5576 5583 5589 5595 5601 5607 5613 5620 5625 5630 5636 5641 5647 5652 5654 5658 5662 5665 5667 5669 5677 5684 5687 5690 5694 5698 5704 5708 5714 5719 5720 5725 5731 5735 5739 5741 5744 5749 5753 5753 5753 5757 5762 5764 5765 5766 5767 5769 5772 5774 5776 5780 5783 5784 5787 5790 5793 5795 5795 5796 5798
5494 5489 5484 5479 5475 5471 5467 5464 5463 5463 5465 5468 5472 5477 5482 5489 5495 5500 5505 5511 5519 5527 5533 5540 5548 5557 5564 5570 5578 5584 5590 5596 5601 5608 5614 5619 5625 5632 5637 5643 5647 5650 5655 5660 5662 5663 5667 5674 5680 5683 5687 5691 5696 5699 5703 5711 5714 5714 5721 5728 5732 5736 5739 5742 5745 5748 5749 5751 5756 5759 5760 5763 5764 5764 5766 5768 5771 5775 5779 5782 5783 5785 5788 5791 5792 5793 5794 5796
5490 5485 5480 5475 5470 5466 5463 5461 5460 5460 5462 5466 5470 5475 5481 5487 5493 5498 5502 5510 5518 5523 5529 5537 5544 5552 5559 5566 5572 5579 5585 5591 5596 5603 5609 5614 5621 5627 5632 5638 5642 5647 5652 5656 5656 5658 5664 5671 5675 5679 5684 5688 5691 5695 5701 5708 5709 5711 5720 5726 5729 5733 5736 5738 5741 5744 5745 5748 5753 5756 5757 5760 5762 5761 5763 5766 5770 5774 5778 5781 5782 5783 5786 5788 5790 5791 5792 5794
5487 5481 5476 5471 5467 5463 5460 5459 5458 5460 5462 5466 5470 5474 5480 5487 5492 5497 5503 5511 5517 5522 5527 5534 5541 5549 5555 5561 5568 5574 5581 5587 5593 5599 5604 5610 5616 5621 5627 5632 5637 5642 5647 5651 5651 5654 5661 5667 5671 5676 5680 5683 5686 5692 5700 5704 5704 5710 5718 5722 5725 5729 5732 5735 5737 5739 5741 5746 5751 5753 5752 5755 5759 5759 5760 5764 5769 5772 5775 5778 5779 5782 5784 5786 5788 5789 5789 5790
5484 5479 5473 5468 5464 5461 5459 5459 5460 5463 5465 5468 5472 5476 5481 5487 5492 5497 5504 5511 5518 5522 5526 5531 5538 5545 5551 5557 5563 5570 5578 5584 5590 5595 5601 5607 5613 5618 5624 5629 5633 5638 5642 5646 5647 5651 5658 5664 5668 5672 5674 5678 5684 5689 5694 5697 5700 5707 5713 5716 5720 5725 5728 5731 5732 5735 5739 5743 5745 5747 5747 5751 5757 5757 5756 5761 5766 5769 5772 5775 5777 5779 5782 5784 5786 5786 5786 5787
5483 5477 5472 5468 5464 5462 5461 5462 5464 5467 5469 5471 5475 5478 5483 5488 5494 5500 5506 5513 5519 5522 5525 5530 5535 5541 5547 5553 5559 5566 5574 5580 5586 5592 5598 5604 5609 5615 5621 5626 5631 5636 5641 5644 5644 5648 5654 5658 5662 5667 5671 5675 5681 5685 5689 5692 5696 5702 5707 5711 5715 5720 5722 5725 5728 5731 5735 5737 5739 5743 5745 5749 5754 5753 5752 5758 5763 5766 5769 5772 5775 5777 5779 5782 5783 5784 5785 5786
5482 5477 5473 5470 5467 5465 5466 5467 5468 5470 5473 5474 5477 5481 5486 5491 5497 5502 5508 5513 5517 5520 5523 5528 5533 5539 5544 5550 5556 5564 5570 5576 5583 5588 5594 5600 5605 5611 5616 5621 5627 5632 5637 5640 5642 5647 5651 5653 5658 5663 5667 5671 5677 5681 5686 5690 5694 5699 5704 5708 5712 5716 5719 5723 5726 5728 5732 5732 5734 5740 5743 5746 5749 5748 5749 5756 5761 5764 5767 5769 5772 5775 5777 5779 5781 5782 5784 5785
5483 5478 5476 5473 5471 5470 5471 5472 5473 5474 5475 5477 5480 5484 5489 5493 5497 5501 5507 5512 5515 5518 5522 5526 5531 5536 5542 5547 5554 5561 5567 5573 5579 5585 5591 5597 5602 5607 5613 5618 5624 5628 5632 5636 5640 5645 5650 5653 5658 5662 5664 5668 5673 5677 5682 5687 5692 5697 5702 5704 5707 5713 5718 5721 5723 5725 5729 5728 5730 5737 5742 5743 5745 5744 5748 5754 5758 5761 5764 5766 5770 5772 5775 5778 5780 5781 5783 5784
5484 5481 5479 5477 5476 5475 5475 5476 5476 5477 5478 5479 5482 5486 5491 5494 5497 5500 5505 5510 5514 5517 5521 5525 5530 5534 5539 5545 5552 5558 5565 5571 5576 5582 5588 5593 5599 5605 5610 5616 5621 5626 5630 5634 5638 5642 5647 5650 5655 5660 5663 5667 5671 5674 5677 5682 5687 5692 5697 5701 5706 5712 5714 5716 5719 5723 5726 5725 5728 5736 5740 5740 5741 5742 5746 5752 5755 5758 5761 5763 5767 5770 5773 5776 5777 5779 5781 5782
5485 5483 5481 5480 5479 5479 5479 5479 5479 5480 5481 5482 5484 5487 5491 5494 5497 5500 5504 5509 5513 5517 5520 5524 5529 5533 5538 5544 5550 5556 5562 5569 5574 5580 5585 5591 5596 5601 5607 5612 5618 5623 5628 5631 5635 5640 5643 5646 5651 5657 5662 5667 5670 5671 5675 5680 5684 5688 5693 5698 5703 5706 5707 5711 5716 5719 5722 5724 5727 5732 5737 5738 5739 5740 5743 5749 5752 5754 5758 5761 5765 5768 5771 5773 5774 5777 5779 5780
5485 5484 5483 5482 5481 5481 5481 5482 5482 5482 5483 5484 5485 5488 5492 5494 5496 5499 5504 5509 5513 5516 5519 5523 5528 5533 5538 5543 5549 5555 5560 5566 5572 5578 5584 5589 5594 5599 5605 5610 5615 5620 5625 5628 5631 5636 5639 5642 5648 5654 5658 5662 5666 5668 5673 5678 5680 5683 5689 5695 5698 5700 5703 5708 5713 5715 5719 5722 5724 5728 5733 5735 5735 5737 5741 5746 5750 5753 5756 5759 5762 5765 5769 5771 5773 5775 5777 5777
5485 5484 5483 5483 5482 5482 5483 5483 5484 5484 5484 5485 5488 5490 5493 5495 5497 5501 5505 5509 5513 5516 5520 5524 5528 5533 5538 5543 5548 5553 5559 5565 5570 5576 5581 5586 5591 5597 5602 5608 5613 5617 5621 5625 5629 5633 5636 5639 5645 5651 5654 5658 5662 5665 5670 5674 5676 5681 5688 5692 5695 5698 5703 5707 5710 5713 5717 5720 5721 5724 5728 5730 5732 5735 5738 5743 5748 5751 5754 5757 5760 5763 5766 5768 5771 5773 5774 5776
5486 5484 5483 5483 5483 5484 5484 5485 5485 5485 5486 5488 5490 5493 5494 5496 5499 5503 5506 5509 5513 5517 5521 5525 5529 5533 5538 5542 5547 5552 5558 5563 5569 5574 5579 5584 5589 5595 5600 5605 5610 5614 5618 5623 5626 5630 5633 5636 5641 5647 5651 5655 5659 5663 5667 5671 5674 5680 5685 5687 5691 5695 5699 5704 5708 5711 5715 5718 5719 5721 5724 5728 5729 5731 5736 5740 5744 5748 5752 5755 5758 5760 5762 5765 5768 5771 5772 5773
5486 5484 5483 5483 5484 5485 5485 5485 5486 5487 5490 5492 5494 5496 5497 5499 5502 5506 5508 5511 5515 5519 5522 5526 5530 5534 5538 5542 5547 5552 5557 5562 5567 5573 5578 5583 5588 5593 5598 5603 5608 5612 5616 5620 5623 5627 5631 5634 5639 5644 5647 5652 5658 5662 5667 5670 5673 5678 5681 5684 5689 5692 5695 5699 5703 5707 5711 5715 5716 5718 5723 5725 5725 5728 5734 5738 5741 5745 5749 5752 5754 5756 5759 5762 5765 5767 5769 5770
5488 5486 5485 5485 5486 5487 5487 5488 5490 5492 5494 5496 5497 5498 5500 5502 5505 5508 5511 5514 5517 5521 5524 5527 5531 5535 5539 5543 5547 5552 5556 5562 5567 5572 5577 5582 5586 5591 5596 5601 5606 5610 5614 5618 5621 5625 5629 5632 5636 5641 5646 5652 5656 5659 5663 5667 5670 5675 5679 5684 5688 5690 5693 5697 5700 5703 5707 5710 5712 5715 5719 5721 5722 5726 5731 5734 5738 5741 5744 5747 5750 5753 5756 5759 5762 5764 5766 5767
5494 5491 5490 5490 5491 5492 5493 5494 5496 5497 5498 5499 5500 5501 5503 5506 5508 5511 5514 5517 5520 5523 5526 5529 5532 5536 5540 5543 5548 5552 5556 5561 5566 5571 5575 5580 5584 5589 5593 5598 5603 5607 5612 5615 5618 5623 5627 5630 5634 5639 5645 5648 5651 5655 5660 5663 5667 5671 5676 5681 5686 5689 5692 5695 5698 5700 5703 5706 5709 5713 5716 5717 5719 5723 5727 5732 5735 5738 5741 5744 5747 5751 5754 5757 5759 5761 5763 5765
5503 5501 5499 5498 5498 5499 5499 5500 5500 5501 5501 5502 5503 5505 5507 5510 5512 5515 5517 5520 5523 5525 5528 5531 5535 5538 5541 5545 5549 5552 5557 5561 5565 5570 5574 5578 5583 5587 5592 5597 5601 5606 5610 5613 5616 5621 5625 5628 5631 5636 5640 5642 5646 5652 5656 5659 5664 5668 5672 5677 5681 5685 5688 5691 5694 5696 5699 5704 5707 5711 5714 5715 5717 5721 5725 5729 5733 5736 5739 5742 5745 5749 5752 5754 5756 5758 5760 5763
5511 5509 5507 5506 5505 5505 5505 5504 5504 5504 5505 5506 5507 5509 5512 5514 5516 5518 5521 5523 5525 5527 5531 5534 5537 5540 5543 5546 5550 5554 5557 5561 5565 5569 5574 5578 5582 5586 5591 5595 5599 5603 5607 5610 5614 5619 5623 5625 5629 5634 5637 5640 5644 5649 5651 5655 5660 5664 5668 5673 5677 5680 5683 5687 5690 5693 5698 5702 5704 5708 5712 5714 5716 5720 5723 5726 5731 5734 5736 5739 5743 5746 5749 5751 5754 5756 5758 5761
5517 5515 5513 5512 5511 5510 5510 5509 5508 5508 5509 5510 5512 5514 5516 5518 5520 5521 5523 5525 5527 5530 5533 5536 5539 5541 5545 5548 5551 5555 5558 5562 5566 5570 5574 5578 5582 5586 5590 5594 5597 5601 5605 5608 5612 5617 5620 5624 5628 5632 5636 5640 5645 5649 5651 5654 5657 5660 5664 5669 5673 5677 5680 5683 5687 5691 5696 5700 5701 5706 5711 5711 5713 5717 5720 5723 5728 5731 5734 5737 5740 5743 5746 5749 5752 5754 5756 5758
5522 5520 5518 5517 5516 5515 5514 5514 5514 5514 5515 5516 5518 5519 5520 5521 5522 5524 5526 5528 5530 5533 5536 5538 5541 5544 5546 5549 5552 5556 5559 5563 5567 5570 5574 5578 5581 5585 5588 5592 5595 5599 5603 5607 5610 5614 5619 5623 5627 5630 5634 5638 5642 5646 5650 5654 5657 5661 5664 5667 5670 5674 5677 5680 5684 5688 5693 5696 5698 5703 5706 5707 5710 5714 5717 5721 5725 5728 5731 5734 5737 5740 5743 5746 5749 5751 5753 5755
5528 5526 5525 5523 5521 5520 5520 5520 5520 5521 5521 5522 5522 5523 5523 5524 5526 5527 5529 5531 5533 5535 5537 5540 5543 5545 5548 5550 5553 5557 5560 5564 5567 5570 5574 5577 5580 5583 5587 5590 5594 5598 5602 5605 5609 5613 5617 5620 5624 5628 5631 5635 5638 5642 5647 5652 5657 5661 5664 5667 5670 5673 5675 5678 5682 5686 5689 5691 5695 5698 5701 5704 5708 5711 5715 5719 5721 5724 5728 5730 5733 5736 5740 5743 5746 5748 5750 5753
5534 5533 5531 5529 5528 5527 5526 5526 5526 5526 5526 5526 5526 5526 5527 5528 5529 5530 5531 5533 5535 5537 5540 5542 5545 5547 5549 5552 5555 5558 5561 5564 5567 5570 5573 5576 5580 5583 5586 5589 5593 5597 5601 5604 5608 5612 5615 5618 5622 5625 5629 5632 5635 5640 5645 5649 5651 5656 5660 5664 5668 5671 5675 5678 5681 5683 5685 5687 5691 5694 5697 5701 5704 5709 5713 5716 5718 5721 5724 5727 5730 5733 5737 5740 5743 5745 5748 5750
5539 5537 5536 5534 5533 5532 5531 5531 5531 5530 5530 5530 5530 5530 5530 5531 5532 5533 5534 5535 5537 5540 5542 5545 5547 5549 5551 5553 5556 5559 5561 5564 5567 5570 5573 5576 5579 5582 5586 5589 5592 5596 5599 5603 5606 5610 5614 5617 5620 5624 5626 5629 5633 5638 5642 5645 5648 5652 5656 5659 5663 5668 5672 5675 5678 5680 5682 5686 5689 5691 5693 5697 5701 5705 5710 5713 5715 5719 5722 5725 5728 5731 5734 5737 5740 5743 5745 5748
5542 5541 5539 5538 5536 5535 5534 5534 5533 5533 5533 5533 5533 5533 5533 5534 5535 5535 5537 5538 5540 5542 5544 5547 5549 5551 5553 5555 5557 5559 5562 5565 5568 5571 5573 5577 5579 5582 5585 5589 5592 5595 5599 5602 5605 5609 5612 5615 5619 5622 5624 5627 5631 5635 5639 5643 5646 5649 5652 5656 5660 5663 5667 5671 5674 5676 5679 5683 5686 5687 5691 5694 5698 5702 5706 5710 5714 5717 5720 5723 5726 5729 5732 5735 5738 5741 5743 5745
5545 5543 5542 5541 5539 5538 5537 5536 5536 5535 5535 5535 5535 5536 5536 5537 5538 5539 5539 5541 5543 5545 5547 5549 5551 5553 5555 5557 5559 5561 5563 5566 5568 5571 5574 5576 5579 5582 5585 5588 5591 5594 5598 5601 5604 5608 5611 5614 5617 5620 5623 5626 5630 5634 5638 5641 5643 5645 5649 5653 5656 5660 5663 5667 5670 5673 5676 5680 5682 5684 5688 5692 5695 5700 5704 5708 5712 5715 5718 5721 5724 5727 5730 5732 5735 5738 5740 5742